map of QME home
QME - Facility
Location
City:  Messina, Sicily, Italy
ICAO:LICF
IATA:QME

Details
Type:Facility
Latitude:3812'N (38.200)
Longitude:1533'E (15.550)
Variation:3.44E (WMM2015 magnetic declination)
0.10 annual change

Time
Time Zone:UTC+1 (DST+2)
Local Time:

Weather
METAR:LICF 102255Z 30005G16KT 9999 FEW020TCU SCT030 13/04 Q1013 RMK BKN BKN080 QUK / QUL / VIS MAR 14 KM MON INVIS NC VIS MIN 9999

Related Locations
Nearby:
Farthest:CHT: 11702 mi / 18833 km
Waitangi [Tuuta], CIT, NZ

Find:

   beyond  
but within

Other Information
Maps:
NOTAMs:
Links:
Sources:

  
  • flag of Italy
  • flag of Sicily
  

Sectional Chart

Flight Planning
at skyvector.com

Satellite Image

Google Maps Satellite view

 

Copyright © 2004-2018 Karl L. Swartz. All rights reserved.
The Great Circle Mapper name and logo are trademarks of the Great Circle Mapper.
All other trademarks mentioned herein belong to their respective owners.
Please see credits for attibutions and further copyright information.

  Follow gcmap on Facebook Follow gcmap on Twitter Follow gcmap on Google+ GCmap on LinkedIn

hCard Microformat

Geo Microformat